When you browse on this site, cookies collect data to enhance your experience and personalize the content and advertising you see.
Visit our Privacy Policy to learn more. By continuing to use the site, you agree to this use of cookies and data.

Hourly Weather Kumasi

Today, 10 August, Monday

Time Temperature Precipitation Wind Pressure Humidity
00:00 +24°C° 0 mm 3 mps 757 mmHg 81%
01:00 +24°C° 0 mm 3 mps 757 mmHg 83%
02:00 +24°C° 0 mm 3 mps 757 mmHg 84%
03:00 +24°C° 0 mm 3 mps 756 mmHg 86%
04:00 +24°C° 0 mm 3 mps 757 mmHg 87%
05:00 +23°C° 0 mm 2 mps 757 mmHg 88%
06:00 +23°C° 0 mm 2 mps 757 mmHg 88%
07:00 +25°C° 0 mm 3 mps 758 mmHg 82%
08:00 +26°C° 0 mm 3 mps 758 mmHg 75%
09:00 +28°C° 0 mm 4 mps 758 mmHg 68%
10:00 +29°C° 0 mm 4 mps 758 mmHg 66%
11:00 +29°C° 0 mm 4 mps 758 mmHg 64%
12:00 +30°C° 0 mm 5 mps 757 mmHg 62%
13:00 +29°C° 0 mm 5 mps 757 mmHg 64%
14:00 +29°C° 0 mm 5 mps 756 mmHg 66%
15:00 +28°C° 0 mm 5 mps 755 mmHg 68%
16:00 +28°C° 0 mm 5 mps 755 mmHg 70%
17:00 +27°C° 0 mm 5 mps 756 mmHg 72%
18:00 +27°C° 0 mm 5 mps 756 mmHg 75%
19:00 +26°C° 0 mm 4 mps 756 mmHg 77%
20:00 +26°C° 0 mm 4 mps 757 mmHg 79%
21:00 +25°C° 0 mm 4 mps 757 mmHg 81%
22:00 +25°C° 0 mm 3 mps 757 mmHg 82%
23:00 +25°C° 0 mm 3 mps 757 mmHg 84%

Tomorrow, 11 August, Tuesday

Time Temperature Precipitation Wind Pressure Humidity
00:00 +24°C° 0 mm 2 mps 757 mmHg 85%
01:00 +24°C° 0 mm 2 mps 757 mmHg 85%
02:00 +24°C° 0 mm 2 mps 757 mmHg 86%
03:00 +24°C° 0 mm 2 mps 756 mmHg 86%
04:00 +24°C° 0 mm 2 mps 756 mmHg 86%
05:00 +24°C° 0 mm 2 mps 757 mmHg 86%
06:00 +24°C° 0 mm 2 mps 757 mmHg 87%
07:00 +26°C° 0 mm 3 mps 758 mmHg 79%
08:00 +27°C° 0 mm 3 mps 758 mmHg 71%
09:00 +29°C° 0 mm 4 mps 759 mmHg 64%
10:00 +30°C° 0 mm 4 mps 758 mmHg 60%
11:00 +30°C° 0 mm 5 mps 758 mmHg 57%
12:00 +32°C° 0 mm 5 mps 758 mmHg 54%
13:00 +32°C° 0 mm 5 mps 757 mmHg 54%
14:00 +32°C° 0 mm 5 mps 757 mmHg 54%
15:00 +32°C° 0 mm 5 mps 756 mmHg 54%
16:00 +30°C° 0 mm 5 mps 756 mmHg 58%
17:00 +29°C° 0 mm 5 mps 756 mmHg 63%
18:00 +27°C° 0 mm 5 mps 756 mmHg 67%
19:00 +27°C° 0 mm 4 mps 757 mmHg 71%
20:00 +26°C° 0 mm 4 mps 758 mmHg 75%
21:00 +25°C° 0 mm 3 mps 758 mmHg 79%
22:00 +25°C° 0 mm 3 mps 758 mmHg 81%
23:00 +24°C° 0 mm 2 mps 758 mmHg 84%

Day after tomorrow, 12 August, Wednesday

Time Temperature Precipitation Wind Pressure Humidity
00:00 +24°C° 0 mm 2 mps 758 mmHg 87%
01:00 +24°C° 0 mm 2 mps 758 mmHg 88%
02:00 +23°C° 0 mm 2 mps 757 mmHg 89%
03:00 +23°C° 0 mm 2 mps 757 mmHg 90%
04:00 +23°C° 0 mm 2 mps 757 mmHg 91%
05:00 +23°C° 0 mm 1 mps 758 mmHg 92%
06:00 +23°C° 0 mm 1 mps 758 mmHg 93%
07:00 +25°C° 0 mm 2 mps 758 mmHg 83%
08:00 +26°C° 0 mm 2 mps 759 mmHg 73%
09:00 +28°C° 0 mm 2 mps 759 mmHg 63%
10:00 +29°C° 0 mm 3 mps 759 mmHg 59%
11:00 +30°C° 0 mm 3 mps 759 mmHg 54%
12:00 +33°C° 0 mm 4 mps 758 mmHg 50%
13:00 +32°C° 0 mm 4 mps 758 mmHg 51%
14:00 +32°C° 0 mm 4 mps 757 mmHg 52%
15:00 +32°C° 0 mm 5 mps 757 mmHg 52%
16:00 +29°C° 0 mm 4 mps 757 mmHg 58%
17:00 +28°C° 0 mm 4 mps 757 mmHg 63%
18:00 +26°C° 0 mm 4 mps 757 mmHg 68%
19:00 +26°C° 0 mm 3 mps 757 mmHg 72%
20:00 +25°C° 0 mm 3 mps 758 mmHg 75%
21:00 +25°C° 0 mm 2 mps 758 mmHg 79%
22:00 +24°C° 0 mm 2 mps 758 mmHg 81%
23:00 +24°C° 0 mm 2 mps 758 mmHg 83%

13 August, Thursday

Time Temperature Precipitation Wind Pressure Humidity
00:00 +24°C° 0 mm 2 mps 758 mmHg 85%
01:00 +23°C° 0 mm 2 mps 758 mmHg 86%
02:00 +23°C° 0 mm 2 mps 758 mmHg 88%
03:00 +23°C° 0 mm 2 mps 757 mmHg 89%
04:00 +23°C° 0 mm 2 mps 758 mmHg 90%
05:00 +22°C° 0 mm 1 mps 758 mmHg 90%
06:00 +22°C° 0 mm 1 mps 758 mmHg 91%
07:00 +24°C° 0 mm 2 mps 759 mmHg 82%
08:00 +26°C° 0 mm 2 mps 759 mmHg 73%
09:00 +28°C° 0 mm 3 mps 759 mmHg 64%
10:00 +29°C° 0 mm 3 mps 759 mmHg 60%
11:00 +30°C° 0 mm 3 mps 758 mmHg 56%
12:00 +33°C° 0 mm 3 mps 758 mmHg 51%
13:00 +32°C° 0 mm 4 mps 757 mmHg 53%
14:00 +32°C° 0 mm 4 mps 756 mmHg 54%
15:00 +32°C° 0 mm 4 mps 756 mmHg 56%
16:00 +29°C° 0 mm 4 mps 756 mmHg 61%
17:00 +28°C° 0 mm 4 mps 756 mmHg 66%
18:00 +27°C° 0 mm 4 mps 756 mmHg 71%
19:00 +26°C° 0 mm 4 mps 756 mmHg 75%
20:00 +25°C° 0 mm 3 mps 757 mmHg 79%
21:00 +25°C° 0 mm 3 mps 757 mmHg 83%
22:00 +24°C° 0 mm 3 mps 757 mmHg 85%
23:00 +24°C° 0 mm 3 mps 757 mmHg 86%

14 August, Friday

Time Temperature Precipitation Wind Pressure Humidity
00:00 +24°C° 0 mm 2 mps 757 mmHg 88%
01:00 +24°C° 0 mm 2 mps 757 mmHg 88%
02:00 +23°C° 0 mm 2 mps 756 mmHg 88%
03:00 +23°C° 0 mm 2 mps 756 mmHg 88%
04:00 +23°C° 0 mm 2 mps 756 mmHg 88%
05:00 +22°C° 0 mm 3 mps 756 mmHg 88%
06:00 +22°C° 0 mm 3 mps 757 mmHg 88%
07:00 +25°C° 0 mm 3 mps 757 mmHg 81%
08:00 +26°C° 0 mm 4 mps 757 mmHg 75%
09:00 +28°C° 0 mm 4 mps 758 mmHg 68%
10:00 +29°C° 0 mm 4 mps 757 mmHg 64%
11:00 +30°C° 0 mm 4 mps 757 mmHg 61%
12:00 +32°C° 0 mm 5 mps 756 mmHg 57%
13:00 +30°C° 0.1 mm 4 mps 756 mmHg 62%
14:00 +29°C° 0.1 mm 4 mps 755 mmHg 67%
15:00 +28°C° 0.1 mm 4 mps 754 mmHg 72%
16:00 +27°C° 0 mm 4 mps 754 mmHg 73%
17:00 +27°C° 0 mm 4 mps 754 mmHg 74%
18:00 +26°C° 0 mm 4 mps 754 mmHg 75%
19:00 +26°C° 0 mm 4 mps 755 mmHg 76%
20:00 +26°C° 0 mm 4 mps 756 mmHg 78%
21:00 +25°C° 0 mm 3 mps 756 mmHg 79%
22:00 +25°C° 0 mm 4 mps 756 mmHg 80%
23:00 +25°C° 0 mm 4 mps 756 mmHg 81%

15 August, Saturday

Time Temperature Precipitation Wind Pressure Humidity
00:00 +25°C° 0 mm 4 mps 756 mmHg 82%
01:00 +25°C° 0 mm 4 mps 756 mmHg 81%
02:00 +25°C° 0 mm 4 mps 756 mmHg 80%
03:00 +25°C° 0 mm 4 mps 755 mmHg 80%
04:00 +25°C° 0 mm 4 mps 756 mmHg 80%
05:00 +25°C° 0 mm 4 mps 756 mmHg 81%
06:00 +25°C° 0 mm 3 mps 756 mmHg 82%
07:00 +25°C° 0 mm 3 mps 756 mmHg 80%
08:00 +25°C° 0 mm 3 mps 757 mmHg 78%
09:00 +26°C° 0 mm 3 mps 757 mmHg 76%
10:00 +26°C° 0 mm 4 mps 757 mmHg 74%
11:00 +27°C° 0 mm 4 mps 757 mmHg 72%
12:00 +27°C° 0 mm 4 mps 756 mmHg 71%
13:00 +27°C° 0 mm 4 mps 756 mmHg 70%
14:00 +27°C° 0 mm 4 mps 755 mmHg 70%
15:00 +28°C° 0 mm 4 mps 755 mmHg 69%
16:00 +27°C° 0 mm 4 mps 755 mmHg 71%
17:00 +27°C° 0 mm 4 mps 755 mmHg 73%
18:00 +26°C° 0 mm 3 mps 755 mmHg 75%
19:00 +25°C° 0 mm 3 mps 755 mmHg 76%
20:00 +25°C° 0 mm 3 mps 756 mmHg 78%
21:00 +24°C° 0 mm 3 mps 756 mmHg 79%
22:00 +24°C° 0 mm 3 mps 756 mmHg 80%
23:00 +24°C° 0 mm 3 mps 756 mmHg 81%
Show more